Regional Weather Roundup
Issued by NWS Cleveland, OH

Home | Current Version | Previous Version | Graphics & Text | Print | Product List | Glossary On
Versions: 1 2 3 4 5 6 7 8 9 10 11 12 13 14 15 16 17 18 19 20 21 22 23 24 25 26 27 28 29 30 31 32 33 34 35 36 37 38 39 40 41 42 43 44 45 46 47 48 49 50
000
ASUS41 KCLE 050810
RWRCLE
OHIO REGIONAL WEATHER ROUNDUP
NATIONAL WEATHER SERVICE WILMINGTON, OH
300 AM EST THU MAR 05 2015

NOTE: "FAIR" INDICATES FEW OR NO CLOUDS BELOW 12,000 FEET WITH NO
SIGNIFICANT WEATHER AND/OR OBSTRUCTIONS TO VISIBILITY.

OHZ001>008-015>018-024>027-034-035-043-044-050900-
   NORTHWEST OHIO

CITY           SKY/WX    TMP DP  RH WIND       PRES   REMARKS
DEFIANCE       CLOUDY    16  -1  47 N10       30.31R WCI   4
FINDLAY        CLOUDY    17   2  51 N9        30.27R WCI   6
TOLEDO EXPRESS CLOUDY    15   0  51 N9        30.29R WCI   3
TOLEDO EXEC    CLOUDY    16   0  49 N12       30.30R WCI   3
LIMA           CLOUDY    18   5  57 N13       30.26R WCI   5
$$

OHZ009>014-019>023-028>033-038-089-050900-
   NORTHEAST OHIO

CITY           SKY/WX    TMP DP  RH WIND       PRES   REMARKS
CLE-HOPKINS    CLOUDY    17   4  56 N13G23    30.27S WCI   4
CLE-LAKEFRONT  CLOUDY    18   6  59 N16       30.26R WCI   3
CUY CO. ARPT   NOT AVBL
LORAIN-ELYRIA  CLOUDY    17   5  59 N15       30.25S WCI   2
ASHTABULA      FLURRIES  15   7  70 N10       30.22R WCI   2
AKRON-CANTON   CLOUDY    18   5  57 N12       30.19R WCI   5
WOOSTER        CLOUDY    17   6  62 N17       30.20S WCI   1
MANSFIELD      CLOUDY    16   3  56 NW15      30.20S WCI   1
YOUNGSTOWN     FLURRIES  17   5  59 N17G26    30.17R WCI   1
$$

OHZ042-051>053-060>062-070>072-077>081-050900-
  SOUTHWEST OHIO

CITY           SKY/WX    TMP DP  RH WIND       PRES   REMARKS
CINC-COVINGTON CLOUDY    20   8  60 N20       30.24R WCI   4
CINC-LUNKEN    CLOUDY    21   8  57 N14       30.28R WCI   8
HAMILTON       CLOUDY    21   6  52 N13G21    30.28R WCI   9
DAYTON         CLOUDY    19   7  59 N15       30.24R WCI   5
WRIGHT-PAT AFB CLOUDY    19   8  60 N12       30.23F WCI   7
DAYTON GENERAL CLOUDY    19   5  54 N16G25    30.22R WCI   4
WILMINGTON     CLOUDY    19   7  59 N14G23    30.21R WCI   6
$$

OHZ036-037-039>041-045>050-054>059-063>069-073>076-082>088-050900-
  CENTRAL AND SOUTHEAST OHIO

CITY           SKY/WX    TMP DP  RH WIND       PRES   REMARKS
COLUMBUS       CLOUDY    19   4  51 N17G23    30.22R WCI   4
OSU AIRPORT    CLOUDY    18   4  54 N16       30.23R WCI   3
BOLTON FIELD   CLOUDY   N/A N/A N/A N16       30.24R
RICKENBACK AFB CLOUDY    20   8  60 N15       30.22S WCI   6
NEWARK         CLOUDY    21   6  52 N7        30.20S WCI  12
MARION         CLOUDY    17   4  56 N14       30.24S WCI   3
LANCASTER      CLOUDY    20   6  55 NW13      30.21S WCI   7
ZANESVILLE     CLOUDY    22   6  50 N10G20    30.18R WCI  11
NEW PHILLY     CLOUDY    23  10  57 NW13      30.20R WCI  11
$$



USA.gov is the U.S. government's official web portal to all federal, state and local government web resources and services.